This is the latest recevied weather packets stored in our database for station/object DH4SBM. If no packets are shown the sender has not sent any weather packets the latest 10 day(s).
| Time | Temp. | Humidity | Pressure | Rain* | Wind** | Luminosity | Snow |
|---|---|---|---|---|---|---|---|
| 1778147443 | 10.56° C | 89% | 1016.1 hPa | 0 mm | - | 348 W/m² | - |
| 1778146843 | 10.56° C | 91% | 1016 hPa | 0 mm | - | 287 W/m² | - |
| 1778146541 | 10.56° C | 91% | 1016 hPa | 0 mm | - | 287 W/m² | - |
| 1778145342 | 9.44° C | 94% | 1015.6 hPa | 0 mm | - | 499 W/m² | - |
| 1778144742 | 9.44° C | 94% | 1015.6 hPa | 0 mm | - | 499 W/m² | - |
| 1778100342 | 10.56° C | 93% | 1010.5 hPa | 1.52 mm | - | 0 W/m² | - |
| 1778099741 | 10.56° C | 93% | 1010.5 hPa | 1.52 mm | - | 0 W/m² | - |
| 1778099141 | 10.56° C | 93% | 1010.2 hPa | 1.52 mm | - | 0 W/m² | - |
| 1778098541 | 11.11° C | 93% | 1010.1 hPa | 1.52 mm | - | 0 W/m² | - |
| 1778097941 | 11.11° C | 92% | 1010.2 hPa | 1.78 mm | - | 0 W/m² | - |
| 1778097341 | 11.11° C | 92% | 1010.1 hPa | 1.78 mm | - | 0 W/m² | - |
| 1778096741 | 11.11° C | 92% | 1009.9 hPa | 1.52 mm | - | 0 W/m² | - |
| 1778096141 | 11.11° C | 92% | 1009.8 hPa | 1.27 mm | - | 0 W/m² | - |
| 1778095541 | 11.67° C | 92% | 1009.6 hPa | 1.27 mm | - | 0 W/m² | - |
| 1778094941 | 11.67° C | 91% | 1009.4 hPa | 1.02 mm | - | 0 W/m² | - |
| 1778094341 | 11.67° C | 91% | 1009.4 hPa | 0.76 mm | - | 0 W/m² | - |
| 1778093741 | 11.67° C | 91% | 1009.2 hPa | 0.51 mm | - | 0 W/m² | - |
| 1778093141 | 11.67° C | 91% | 1009 hPa | 0.51 mm | - | 0 W/m² | - |
| 1778092544 | 11.67° C | 90% | 1009 hPa | 0.51 mm | - | 0 W/m² | - |
| 1778091944 | 12.22° C | 90% | 1008.9 hPa | 0.25 mm | - | 0 W/m² | - |
| 1778091344 | 12.22° C | 90% | 1008.7 hPa | 0.25 mm | - | 7 W/m² | - |
| 1778090744 | 12.22° C | 90% | 1008.7 hPa | 0 mm | - | 7 W/m² | - |
| 1778090144 | 12.22° C | 90% | 1008.7 hPa | 0.25 mm | - | 9 W/m² | - |
| 1778089544 | 12.22° C | 89% | 1008.5 hPa | 0.25 mm | - | 16 W/m² | - |
| 1778088944 | 12.22° C | 89% | 1008.5 hPa | 0.25 mm | - | 14 W/m² | - |
* Rain latest hour (hover to see other rain measurements)
** Current wind speed in m/s (hover to see current wind gust speed)